This demonstration page uses our WeatherBlox Daily Observations layout. Learn more.

Left ArrowRight Arrow

40.92945, -100.16068

Hourly Observations for February 9, 2021

Temp ( °F °C ) Dew Point ( °F °C ) Humidity (%) Winds ( mph kmh ) Pressure ( in mb ) Visibility ( mi km ) Precip ( " mm )
12:15 am 00:15 Cloudy -3 -19.7 -8 -22.1 81 81 N N/A 30.54 1034 10 16.0934 N/A
12:35 am 00:35 Cloudy -2 -19.1 -7 -21.4 82 82 N N/A 30.53 1034 10 16.0934 N/A
12:55 am 00:55 Cloudy -2 -18.8 -6 -21.1 82 82 N N/A 30.53 1034 10 16.0934 N/A
1:15 am 01:15 Cloudy -2 -18.7 -6 -21 82 82 N N/A 30.53 1034 10 16.0934 N/A
1:35 am 01:35 Cloudy -1 -18.5 -5 -20.8 82 82 N N/A 30.53 1034 10 16.0934 N/A
1:55 am 01:55 Cloudy -1 -18.2 -5 -20.5 82 82 N N/A 30.52 1034 10 16.0934 N/A
2:15 am 02:15 Cloudy -1 -18.1 -5 -20.5 82 82 N N/A 30.51 1033 10 16.0934 N/A
2:35 am 02:35 Cloudy N/A -5 -20.4 81 81 N N/A 30.52 1034 10 16.0934 N/A
2:55 am 02:55 Cloudy N/A -5 -20.3 80 80 N N/A 30.52 1033 10 16.0934 N/A
3:15 am 03:15 Cloudy N/A -5 -20.3 80 80 N N/A 30.52 1033 10 16.0934 N/A
3:35 am 03:35 Cloudy 1 -17.5 -5 -20.3 79 79 N N/A 30.52 1033 10 16.0934 N/A
3:55 am 03:55 Cloudy 1 -17.5 -4 -20.2 80 80 N N/A 30.52 1033 10 16.0934 N/A
4:15 am 04:15 Cloudy 1 -17.3 -4 -20 80 80 N N/A 30.51 1033 10 16.0934 N/A
4:35 am 04:35 Cloudy 1 -17.2 -4 -20 79 79 N N/A 30.51 1033 10 16.0934 N/A
4:55 am 04:55 Cloudy 1 -17.1 -4 -20 78 78 N N/A 30.51 1033 10 16.0934 N/A
5:15 am 05:15 Cloudy 1 -17 -4 -20 78 78 N N/A 30.5 1033 10 16.0934 N/A
5:35 am 05:35 Cloudy 1 -17 -4 -20 78 78 N N/A 30.51 1033 10 16.0934 N/A
5:55 am 05:55 Cloudy 2 -16.8 -4 -19.8 78 78 N N/A 30.51 1033 10 16.0934 N/A
6:15 am 06:15 Cloudy 2 -16.7 -4 -19.8 77 77 N N/A 30.51 1033 10 16.0934 N/A
6:35 am 06:35 Cloudy 2 -16.5 -3 -19.6 77 77 N N/A 30.5 1033 10 16.0934 N/A
6:55 am 06:55 Cloudy 2 -16.5 -3 -19.6 77 77 N N/A 30.5 1033 10 16.0934 N/A
7:15 am 07:15 Cloudy 2 -16.5 -3 -19.7 76 76 N N/A 30.5 1033 10 16.0934 N/A
7:35 am 07:35 Cloudy 2 -16.5 -3 -19.6 77 77 N N/A 30.5 1033 10 16.0934 N/A
7:55 am 07:55 Cloudy 3 -16.3 -3 -19.3 78 78 N N/A 30.51 1033 10 16.0934 N/A
8:15 am 08:15 Cloudy 3 -16.2 -3 -19.2 78 78 N N/A 30.52 1034 10 16.0934 N/A
8:35 am 08:35 Cloudy 2 -16.4 -3 -19.5 77 77 N N/A 30.53 1034 10 16.0934 N/A
8:55 am 08:55 Cloudy 2 -16.5 -3 -19.2 80 80 N N/A 30.53 1034 7 11.26538 N/A
9:15 am 09:15 Cloudy 3 -16.2 -2 -19.1 79 79 N N/A 30.54 1034 10 16.0934 N/A
9:35 am 09:35 Cloudy 3 -16.1 -3 -19.2 77 77 N N/A 30.54 1034 7 11.26538 N/A
9:55 am 09:55 Cloudy 3 -16 -3 -19.2 77 77 N 3 6 30.54 1034 7 11.26538 N/A
10:17 am 10:17 Partly Cloudy 3 -16 -2 -19 78 78 N 5 7 30.55 1034 10 16.0934 N/A
10:35 am 10:35 Partly Cloudy 3 -16.1 -3 -19.5 75 75 NNE 5 7 30.55 1035 10 16.0934 N/A
10:55 am 10:55 Sunny 4 -15.8 -3 -19.4 74 74 NNE 3 6 30.55 1034 10 16.0934 N/A
11:15 am 11:15 Sunny 4 -15.6 -3 -19.5 72 72 N N/A 30.54 1034 10 16.0934 N/A
11:35 am 11:35 Sunny 5 -15.1 -2 -19.1 72 72 N N/A 30.54 1034 10 16.0934 N/A
11:55 am 11:55 Sunny 6 -14.7 -2 -19 70 70 N N/A 30.53 1034 10 16.0934 N/A
12:15 pm 12:15 Sunny 6 -14.5 -2 -19 69 69 N 3 6 30.53 1034 10 16.0934 N/A
12:35 pm 12:35 Sunny 6 -14.3 -2 -19 68 68 N N/A 30.52 1034 10 16.0934 N/A
12:55 pm 12:55 Sunny 6 -14.2 -2 -18.9 68 68 N N/A 30.51 1033 10 16.0934 N/A
1:15 pm 13:15 Sunny 7 -13.8 -1 -18.6 67 67 NNE 3 6 30.5 1033 10 16.0934 N/A
1:35 pm 13:35 Sunny 7 -14 -2 -18.9 67 67 NE 5 7 30.5 1033 10 16.0934 N/A
1:55 pm 13:55 Sunny 7 -13.7 -2 -18.9 65 65 NE 5 7 30.48 1032 10 16.0934 N/A
2:15 pm 14:15 Sunny 7 -13.8 -2 -18.7 67 67 ENE 5 7 30.47 1032 10 16.0934 N/A
2:35 pm 14:35 Sunny 7 -13.7 -1 -18.4 68 68 E 5 7 30.47 1032 10 16.0934 N/A
2:55 pm 14:55 Sunny 8 -13.5 -1 -18.3 67 67 ENE 3 6 30.47 1032 10 16.0934 N/A
3:15 pm 15:15 Sunny 8 -13.5 -1 -18.3 67 67 ENE 5 7 30.45 1031 10 16.0934 N/A
3:35 pm 15:35 Sunny 8 -13.5 -1 -18.1 69 69 ENE 5 7 30.45 1031 10 16.0934 N/A
3:50 pm 15:50 Sunny 8 -13.5 -1 -18.3 67 67 ENE 6 9 30.45 1031 10 16.0934 N/A
4:15 pm 16:15 Partly Cloudy 8 -13.5 -1 -18.4 67 67 ENE 6 9 30.45 1031 10 16.0934 N/A
4:35 pm 16:35 Partly Cloudy 7 -13.7 -1 -18.5 67 67 NE 6 9 30.45 1031 10 16.0934 N/A
4:55 pm 16:55 Partly Cloudy 7 -13.7 -1 -18.5 67 67 ENE 7 11 30.45 1031 10 16.0934 N/A
5:15 pm 17:15 Sunny 7 -13.7 -1 -18.3 69 69 ENE 5 7 30.45 1031 10 16.0934 N/A
5:35 pm 17:35 Sunny 7 -13.8 -1 -18.5 68 68 ENE 6 9 30.45 1031 10 16.0934 N/A
5:55 pm 17:55 Sunny 7 -13.8 -1 -18.5 68 68 E 5 7 30.45 1031 10 16.0934 N/A
6:15 pm 18:15 Clear 7 -14 -1 -18.5 69 69 E 5 7 30.46 1031 10 16.0934 N/A
6:35 pm 18:35 Clear 7 -13.9 -1 -18.4 69 69 E 3 6 30.46 1032 10 16.0934 N/A
6:55 pm 18:55 Clear 7 -14 -1 -18.3 70 70 ENE 5 7 30.46 1031 10 16.0934 N/A
7:15 pm 19:15 Clear 7 -14 -1 -18.5 69 69 ENE 5 7 30.47 1032 10 16.0934 N/A
7:35 pm 19:35 Partly Cloudy 7 -13.8 -1 -18.1 70 70 E 6 9 30.46 1032 10 16.0934 N/A
7:55 pm 19:55 Mostly Cloudy 7 -13.8 N/A 71 71 ENE 7 11 30.45 1031 10 16.0934 N/A
8:15 pm 20:15 Mostly Cloudy 7 -14 -1 -18.3 70 70 E 7 11 30.46 1031 10 16.0934 N/A
8:35 pm 20:35 Partly Cloudy 7 -14 N/A 72 72 ENE 7 11 30.47 1032 10 16.0934 N/A
8:55 pm 20:55 Partly Cloudy 6 -14.3 -2 -19 68 68 ENE 7 11 30.47 1032 10 16.0934 N/A
9:15 pm 21:15 Partly Cloudy 6 -14.6 -2 -19 69 69 E 6 9 30.46 1032 10 16.0934 N/A
9:35 pm 21:35 Mostly Cloudy 6 -14.6 -1 -18.5 72 72 ENE 6 9 30.48 1032 10 16.0934 N/A
9:55 pm 21:55 Partly Cloudy 6 -14.5 -1 -18.5 72 72 E 7 11 30.49 1033 10 16.0934 N/A
10:15 pm 22:15 Clear 6 -14.5 -1 -18.5 72 72 E 5 7 30.5 1033 10 16.0934 N/A
10:35 pm 22:35 Clear 6 -14.5 -1 -18.4 72 72 E 5 7 30.5 1033 10 16.0934 N/A
10:55 pm 22:55 Partly Cloudy 6 -14.5 -1 -18.5 72 72 ESE 5 7 30.51 1033 10 16.0934 N/A
11:15 pm 23:15 Cloudy 6 -14.5 -1 -18.3 73 73 E 5 7 30.51 1033 10 16.0934 N/A
11:35 pm 23:35 Cloudy 6 -14.7 -1 -18.5 73 73 ENE 5 7 30.51 1033 10 16.0934 N/A
11:55 pm 23:55 Cloudy 6 -14.6 -1 -18.2 74 74 E 5 7 30.5 1033 10 16.0934 N/A

Powered by AerisWeather